N4JAH-WX Weather Reports


Display with metric or nautical units.
time (UTC)temp
F
wind
direction
speed
MPH
gust
MPH
rain 1hr
in
rain 24hr
in
rain mn
in
humidity
%
barometer
mb
20210515175251 74 32 2.0 3.0 0.00 0.00 0.00 43 1024.7
20210515174751 73 32 0.0 3.0 0.00 0.00 0.00 43 1024.8
20210515174251 74 36 0.0 3.0 0.00 0.00 0.00 43 1024.9
20210515173750 74 35 0.0 3.0 0.00 0.00 0.00 44 1024.8
20210515173250 73 32 2.0 3.0 0.00 0.00 0.00 47 1024.8
20210515172750 73 28 0.0 3.0 0.00 0.00 0.00 45 1025.1
20210515172250 73 28 0.0 3.0 0.00 0.00 0.00 46 1025.1
20210515171750 73 36 0.0 3.0 0.00 0.00 0.00 48 1025.2
20210515171250 74 42 0.0 3.0 0.00 0.00 0.00 46 1025.2
20210515170750 74 42 0.0 3.0 0.00 0.00 0.00 45 1025.1
20210515170249 74 42 0.0 5.0 0.00 0.00 0.00 42 1025.2
20210515165749 74 264 0.0 5.0 0.00 0.00 0.00 46 1025.1
20210515165249 73 265 0.0 5.0 0.00 0.00 0.00 46 1025.2
20210515164749 73 271 1.0 5.0 0.00 0.00 0.00 45 1025.2
20210515164249 74 39 1.0 5.0 0.00 0.00 0.00 44 1025.3
20210515163749 74 30 2.0 5.0 0.00 0.00 0.00 44 1025.4
20210515163248 74 34 1.0 5.0 0.00 0.00 0.00 45 1025.4
20210515162748 74 79 0.0 5.0 0.00 0.00 0.00 46 1025.4
20210515162248 73 293 0.0 5.0 0.00 0.00 0.00 45 1025.4
20210515161748 73 126 0.0 5.0 0.00 0.00 0.00 46 1025.4
20210515161248 73 31 1.0 5.0 0.00 0.00 0.00 46 1025.4
20210515160748 73 38 4.0 5.0 0.00 0.00 0.00 46 1025.3
20210515160248 73 23 0.0 4.0 0.00 0.00 0.00 46 1025.5
20210515155747 73 41 1.0 4.0 0.00 0.00 0.00 44 1025.5
20210515155247 72 42 0.0 4.0 0.00 0.00 0.00 47 1025.5
20210515154747 72 20 2.0 4.0 0.00 0.00 0.00 48 1025.5
20210515154247 72 26 0.0 4.0 0.00 0.00 0.00 48 1025.5
20210515153747 72 49 1.0 4.0 0.00 0.00 0.00 48 1025.6
20210515153247 72 42 2.0 4.0 0.00 0.00 0.00 46 1025.7
20210515152747 72 38 1.0 4.0 0.00 0.00 0.00 47 1025.8
20210515152247 72 27 0.0 4.0 0.00 0.00 0.00 51 1025.7
20210515151746 71 27 0.0 4.0 0.00 0.00 0.00 51 1025.7
20210515151247 71 26 0.0 4.0 0.00 0.00 0.00 51 1025.6
20210515150746 70 25 1.0 4.0 0.00 0.00 0.00 50 1025.9
20210515150246 70 19 3.0 2.0 0.00 0.00 0.00 51 1025.9
20210515145746 71 28 2.0 2.0 0.00 0.00 0.00 51 1026.0
20210515145246 71 34 2.0 2.0 0.00 0.00 0.00 51 1026.0
20210515144746 71 34 0.0 2.0 0.00 0.00 0.00 54 1026.1
20210515144245 70 329 0.0 2.0 0.00 0.00 0.00 60 1026.2
20210515143745 69 329 0.0 2.0 0.00 0.00 0.00 59 1026.2
20210515143245 69 329 3.0 2.0 0.00 0.00 0.00 58 1026.3
20210515142745 68 263 0.0 2.0 0.00 0.00 0.00 61 1026.1
20210515142245 68 263 1.0 2.0 0.00 0.00 0.00 63 1026.0
20210515141745 68 263 0.0 2.0 0.00 0.00 0.00 61 1026.0
20210515141244 68 263 0.0 2.0 0.00 0.00 0.00 61 1026.0
20210515140744 68 263 0.0 2.0 0.00 0.00 0.00 64 1026.0
20210515140244 67 263 0.0 0.0 0.00 0.00 0.00 67 1025.9
20210515135744 67 263 0.0 0.0 0.00 0.00 0.00 65 1026.0
20210515135244 67 263 0.0 0.0 0.00 0.00 0.00 66 1026.1
20210515134744 66 263 0.0 0.0 0.00 0.00 0.00 70 1026.1
20210515134244 65 263 0.0 0.0 0.00 0.00 0.00 72 1026.0
20210515133743 65 263 0.0 0.0 0.00 0.00 0.00 71 1026.1
20210515133243 64 263 3.0 0.0 0.00 0.00 0.00 73 1026.0
20210515132743 64 263 0.0 0.0 0.00 0.00 0.00 76 1026.2
20210515132243 64 263 0.0 0.0 0.00 0.00 0.00 78 1026.1
20210515131743 64 263 0.0 0.0 0.00 0.00 0.00 79 1026.1
20210515131243 63 263 0.0 0.0 0.00 0.00 0.00 79 1026.0
20210515130743 62 263 0.0 0.0 0.00 0.00 0.00 81 1026.1
20210515130242 61 263 0.0 0.0 0.00 0.00 0.00 82 1026.2
20210515125742 61 263 0.0 0.0 0.00 0.00 0.00 84 1026.2
20210515125242 60 263 0.0 0.0 0.00 0.00 0.00 84 1026.2
20210515124742 59 263 0.0 0.0 0.00 0.00 0.00 87 1026.2
20210515124242 58 263 0.0 0.0 0.00 0.00 0.00 90 1026.2
20210515123742 57 263 0.0 0.0 0.00 0.00 0.00 93 1026.2
20210515123242 55 263 0.0 0.0 0.00 0.00 0.00 94 1026.2
20210515122741 54 263 0.0 0.0 0.00 0.00 0.00 95 1026.3
20210515122241 53 263 0.0 0.0 0.00 0.00 0.00 95 1026.1
20210515121741 52 263 0.0 0.0 0.00 0.00 0.00 95 1026.1
20210515121241 51 263 0.0 0.0 0.00 0.00 0.00 95 1026.1
20210515120741 50 263 0.0 0.0 0.00 0.00 0.00 95 1026.1
20210515120241 50 263 0.0 0.0 0.00 0.00 0.00 95 1025.8
20210515115740 49 263 0.0 0.0 0.00 0.00 0.00 95 1025.9
20210515115240 49 263 0.0 0.0 0.00 0.00 0.00 94 1025.8
20210515114740 48 263 0.0 0.0 0.00 0.00 0.00 94 1025.8
20210515114240 48 263 0.0 0.0 0.00 0.00 0.00 94 1025.9
20210515113740 48 263 0.0 0.0 0.00 0.00 0.00 94 1025.8
20210515113240 47 263 0.0 0.0 0.00 0.00 0.00 94 1025.7
20210515112740 47 263 0.0 0.0 0.00 0.00 0.00 94 1025.7
20210515112239 47 263 0.0 0.0 0.00 0.00 0.00 94 1025.7
20210515111739 47 263 0.0 0.0 0.00 0.00 0.00 94 1025.5
20210515111239 47 263 0.0 0.0 0.00 0.00 0.00 94 1025.3
20210515110739 47 263 0.0 0.0 0.00 0.00 0.00 94 1025.3
20210515110239 47 263 0.0 0.0 0.00 0.00 0.00 94 1025.1
20210515105739 47 263 0.0 0.0 0.00 0.00 0.00 93 1025.1
20210515105239 47 263 0.0 0.0 0.00 0.00 0.00 93 1025.0
20210515104738 47 263 0.0 0.0 0.00 0.00 0.00 93 1025.0
20210515104238 47 263 0.0 0.0 0.00 0.00 0.00 93 1025.0
20210515103738 47 263 0.0 0.0 0.00 0.00 0.00 93 1024.8
20210515103238 47 263 0.0 0.0 0.00 0.00 0.00 93 1024.7
20210515102738 47 263 0.0 0.0 0.00 0.00 0.00 93 1024.7
20210515102238 47 263 0.0 0.0 0.00 0.00 0.00 93 1024.5
20210515101738 47 263 0.0 0.0 0.00 0.00 0.00 93 1024.4
20210515101237 47 263 0.0 0.0 0.00 0.00 0.00 93 1024.3
20210515100737 47 263 0.0 0.0 0.00 0.00 0.00 93 1024.2
20210515100237 47 263 0.0 0.0 0.00 0.00 0.00 93 1024.1
20210515095737 48 263 0.0 0.0 0.00 0.00 0.00 93 1024.2
20210515095237 48 263 0.0 0.0 0.00 0.00 0.00 93 1024.1
20210515094737 48 263 0.0 0.0 0.00 0.00 0.00 93 1024.0
20210515094236 48 263 0.0 0.0 0.00 0.00 0.00 93 1024.1
20210515093736 48 263 0.0 0.0 0.00 0.00 0.00 93 1024.0
20210515093236 48 263 0.0 0.0 0.00 0.00 0.00 93 1024.0
20210515092736 48 263 0.0 0.0 0.00 0.00 0.00 93 1024.0
20210515092236 48 263 0.0 0.0 0.00 0.00 0.00 93 1024.0
20210515091736 49 263 0.0 0.0 0.00 0.00 0.00 93 1024.0
20210515091236 49 263 0.0 0.0 0.00 0.00 0.00 93 1023.9
20210515090735 49 263 0.0 0.0 0.00 0.00 0.00 93 1023.9
20210515090235 49 263 0.0 0.0 0.00 0.00 0.00 92 1023.8
20210515085735 49 263 0.0 0.0 0.00 0.00 0.00 93 1023.7
20210515085235 49 263 0.0 0.0 0.00 0.00 0.00 93 1023.7
20210515084735 49 263 0.0 0.0 0.00 0.00 0.00 93 1023.7
20210515084235 50 263 0.0 0.0 0.00 0.00 0.00 92 1023.6
20210515083735 50 263 0.0 0.0 0.00 0.00 0.00 92 1023.6
20210515083234 50 263 0.0 0.0 0.00 0.00 0.00 93 1023.5
20210515082734 50 263 0.0 0.0 0.00 0.00 0.00 93 1023.5
20210515082234 50 263 0.0 0.0 0.00 0.00 0.00 93 1023.5
20210515081734 50 263 0.0 0.0 0.00 0.00 0.00 92 1023.5
20210515081234 50 263 0.0 0.0 0.00 0.00 0.00 92 1023.5
20210515080734 50 263 0.0 0.0 0.00 0.00 0.00 92 1023.5
20210515080234 50 263 0.0 0.0 0.00 0.00 0.00 92 1023.5
20210515075734 50 263 0.0 0.0 0.00 0.00 0.00 92 1023.5
20210515075233 51 263 0.0 0.0 0.00 0.00 0.00 93 1023.4
20210515074733 51 263 0.0 0.0 0.00 0.00 0.00 93 1023.4
20210515074233 50 263 0.0 0.0 0.00 0.00 0.00 93 1023.4
20210515073733 50 263 0.0 0.0 0.00 0.00 0.00 93 1023.4
20210515073233 50 263 0.0 0.0 0.00 0.00 0.00 93 1023.4
20210515072733 50 263 0.0 0.0 0.00 0.00 0.00 93 1023.5
20210515072232 50 263 0.0 0.0 0.00 0.00 0.00 93 1023.4
20210515071732 50 263 0.0 0.0 0.00 0.00 0.00 93 1023.4
20210515071232 50 263 0.0 0.0 0.00 0.00 0.00 92 1023.5
20210515070732 50 263 0.0 0.0 0.00 0.00 0.00 92 1023.3
20210515070232 50 263 0.0 0.0 0.00 0.00 0.00 92 1023.4
20210515065732 50 263 0.0 0.0 0.00 0.00 0.00 92 1023.5
20210515065232 50 263 0.0 0.0 0.00 0.00 0.00 92 1023.5
20210515064731 50 263 0.0 0.0 0.00 0.00 0.00 92 1023.5
20210515064231 50 263 0.0 0.0 0.00 0.00 0.00 92 1023.5
20210515063731 50 263 0.0 0.0 0.00 0.00 0.00 91 1023.5
20210515063231 50 263 0.0 0.0 0.00 0.00 0.00 91 1023.5
20210515062731 50 263 0.0 0.0 0.00 0.00 0.00 91 1023.4
20210515062231 50 263 0.0 0.0 0.00 0.00 0.00 91 1023.5
20210515061731 51 263 0.0 0.0 0.00 0.00 0.00 91 1023.5
20210515061231 51 263 0.0 0.0 0.00 0.00 0.00 92 1023.6
20210515060730 51 263 0.0 0.0 0.00 0.00 0.00 92 1023.5
20210515060230 51 263 0.0 0.0 0.00 0.00 0.00 91 1023.6
20210515055730 51 263 0.0 0.0 0.00 0.00 0.00 91 1023.7
20210515055230 51 263 0.0 0.0 0.00 0.00 0.00 91 1023.7
20210515054730 50 263 0.0 0.0 0.00 0.00 0.00 91 1023.7
20210515054230 50 263 0.0 0.0 0.00 0.00 0.00 91 1023.6
20210515053729 50 263 0.0 0.0 0.00 0.00 0.00 91 1023.6
20210515053229 51 263 0.0 0.0 0.00 0.00 0.00 91 1023.6
20210515052729 51 263 0.0 0.0 0.00 0.00 0.00 91 1023.6
20210515052229 51 263 0.0 0.0 0.00 0.00 0.00 91 1023.6
20210515051729 51 263 0.0 0.0 0.00 0.00 0.00 91 1023.6
20210515051229 51 263 0.0 0.0 0.00 0.00 0.00 91 1023.6
20210515050728 51 263 0.0 0.0 0.00 0.00 0.00 91 1023.6
20210515050229 51 263 0.0 0.0 0.00 0.00 0.00 90 1023.7
20210515045729 51 263 0.0 0.0 0.00 0.00 0.00 90 1023.7
20210515045228 51 263 0.0 0.0 0.00 0.00 0.00 90 1023.8
20210515044728 51 263 0.0 0.0 0.00 0.00 0.00 90 1023.8
20210515044228 51 263 0.0 0.0 0.00 0.00 0.00 90 1023.7
20210515043728 51 263 0.0 0.0 0.00 0.00 0.00 90 1023.9
20210515043227 51 263 0.0 0.0 0.00 0.00 0.00 90 1023.8
20210515042727 51 263 0.0 0.0 0.00 0.00 0.00 90 1023.9
20210515042227 51 263 0.0 0.0 0.00 0.00 0.00 90 1023.8
20210515041727 51 263 0.0 0.0 0.00 0.00 0.00 90 1023.9
20210515041227 51 263 0.0 0.0 0.00 0.00 0.00 90 1023.9
20210515040727 51 263 0.0 0.0 0.00 0.00 0.00 90 1023.9
20210515040227 51 263 0.0 0.0 0.00 0.00 0.00 90 1023.9
20210515035726 51 263 0.0 0.0 0.00 0.00 0.00 89 1023.9
20210515035226 51 263 0.0 0.0 0.00 0.00 0.00 89 1023.9
20210515034726 51 263 0.0 0.0 0.00 0.00 0.00 89 1024.1
20210515034226 51 263 0.0 0.0 0.00 0.00 0.00 89 1024.0
20210515033726 51 263 0.0 0.0 0.00 0.00 0.00 88 1024.0
20210515033226 51 263 0.0 0.0 0.00 0.00 0.00 88 1024.0
20210515032726 52 263 0.0 0.0 0.00 0.00 0.00 88 1024.0
20210515032226 52 263 0.0 0.0 0.00 0.00 0.00 87 1023.9
20210515031725 52 263 0.0 0.0 0.00 0.00 0.00 87 1023.9
20210515031225 52 263 0.0 0.0 0.00 0.00 0.00 87 1023.9
20210515030725 52 263 0.0 0.0 0.00 0.00 0.00 87 1023.9
20210515030225 52 263 0.0 0.0 0.00 0.00 0.00 86 1024.0
20210515025725 52 263 0.0 0.0 0.00 0.00 0.00 86 1024.1
20210515025225 53 263 0.0 0.0 0.00 0.00 0.00 86 1024.1
20210515024724 53 263 0.0 0.0 0.00 0.00 0.00 85 1024.1
20210515024224 53 263 0.0 0.0 0.00 0.00 0.00 85 1024.0
20210515023724 53 263 0.0 0.0 0.00 0.00 0.00 85 1024.0
20210515023224 53 263 0.0 0.0 0.00 0.00 0.00 84 1023.8
20210515022724 54 263 0.0 0.0 0.00 0.00 0.00 84 1023.8
20210515022224 54 263 0.0 0.0 0.00 0.00 0.00 84 1023.8
20210515021724 54 263 0.0 0.0 0.00 0.00 0.00 84 1023.8
20210515021223 54 263 0.0 0.0 0.00 0.00 0.00 83 1023.8
20210515020723 54 263 0.0 0.0 0.00 0.00 0.00 82 1023.7
20210515020223 55 263 0.0 0.0 0.00 0.00 0.00 82 1023.7
20210515015723 55 263 0.0 0.0 0.00 0.00 0.00 81 1023.5
20210515015223 55 263 0.0 0.0 0.00 0.00 0.00 81 1023.5
20210515014723 55 263 0.0 0.0 0.00 0.00 0.00 80 1023.5
20210515014223 56 263 0.0 0.0 0.00 0.00 0.00 79 1023.5
20210515013723 56 263 0.0 0.0 0.00 0.00 0.00 78 1023.3
20210515013222 56 263 0.0 0.0 0.00 0.00 0.00 78 1023.3
20210515012722 57 263 0.0 0.0 0.00 0.00 0.00 78 1023.3
20210515012222 57 263 0.0 0.0 0.00 0.00 0.00 77 1023.2
20210515011722 58 263 0.0 0.0 0.00 0.00 0.00 76 1023.2
20210515011222 58 263 0.0 0.0 0.00 0.00 0.00 76 1023.2
20210515010722 59 263 0.0 0.0 0.00 0.00 0.00 75 1023.1
20210515010222 59 263 0.0 0.0 0.00 0.00 0.00 74 1023.0
20210515005721 59 263 0.0 0.0 0.00 0.00 0.00 73 1022.9
20210515005221 60 263 0.0 0.0 0.00 0.00 0.00 73 1022.9
20210515004721 61 263 0.0 0.0 0.00 0.00 0.00 71 1023.0
20210515004221 61 263 0.0 0.0 0.00 0.00 0.00 69 1023.0
20210515003721 62 263 0.0 0.0 0.00 0.00 0.00 68 1022.9
20210515003220 63 263 0.0 0.0 0.00 0.00 0.00 66 1023.0
20210515002721 64 263 0.0 0.0 0.00 0.00 0.00 65 1022.9
20210515002220 64 263 0.0 0.0 0.00 0.00 0.00 63 1022.9
20210515001721 65 263 0.0 0.0 0.00 0.00 0.00 62 1022.9
20210515001220 66 263 0.0 0.0 0.00 0.00 0.00 60 1022.9
20210515000720 67 263 0.0 0.0 0.00 0.00 0.00 58 1022.8
20210515000220 68 263 0.0 0.0 0.00 0.00 0.00 56 1022.7
20210514235720 69 263 0.0 0.0 0.00 0.00 0.00 54 1022.6
20210514235219 70 263 0.0 0.0 0.00 0.00 0.00 52 1022.6
20210514234719 70 263 0.0 0.0 0.00 0.00 0.00 52 1022.6
20210514234219 71 263 0.0 0.0 0.00 0.00 0.00 47 1022.6
20210514233719 72 263 0.0 0.0 0.00 0.00 0.00 47 1022.6
20210514233219 72 263 0.0 0.0 0.00 0.00 0.00 46 1022.5
20210514232719 73 263 0.0 0.0 0.00 0.00 0.00 45 1022.5
20210514232219 72 263 0.0 0.0 0.00 0.00 0.00 44 1022.4
20210514231718 72 263 0.0 0.0 0.00 0.00 0.00 43 1022.4
20210514231219 73 263 0.0 0.0 0.00 0.00 0.00 42 1022.4
20210514230718 73 263 0.0 0.0 0.00 0.00 0.00 41 1022.4
20210514230218 73 263 0.0 0.0 0.00 0.00 0.00 41 1022.4
20210514225718 73 263 0.0 0.0 0.00 0.00 0.00 42 1022.5
20210514225218 73 263 0.0 0.0 0.00 0.00 0.00 44 1022.5
20210514224717 73 263 0.0 0.0 0.00 0.00 0.00 43 1022.5
20210514224217 73 263 0.0 0.0 0.00 0.00 0.00 41 1022.5
20210514223717 73 263 0.0 0.0 0.00 0.00 0.00 42 1022.4
20210514223217 74 263 0.0 0.0 0.00 0.00 0.00 41 1022.5
20210514222717 73 263 0.0 0.0 0.00 0.00 0.00 41 1022.5
20210514222217 74 263 0.0 0.0 0.00 0.00 0.00 40 1022.6
20210514221717 74 263 0.0 0.0 0.00 0.00 0.00 41 1022.6
20210514221217 74 263 0.0 0.0 0.00 0.00 0.00 41 1022.6
20210514220716 74 263 0.0 0.0 0.00 0.00 0.00 41 1022.6
20210514220216 74 263 0.0 2.0 0.00 0.00 0.00 42 1022.7
20210514215716 74 263 0.0 2.0 0.00 0.00 0.00 43 1022.7
20210514215216 74 263 0.0 2.0 0.00 0.00 0.00 41 1022.7
20210514214716 74 263 0.0 2.0 0.00 0.00 0.00 39 1022.8
20210514214216 74 263 0.0 2.0 0.00 0.00 0.00 38 1022.7
20210514213715 74 263 0.0 2.0 0.00 0.00 0.00 39 1022.8
20210514213215 75 291 0.0 2.0 0.00 0.00 0.00 38 1022.9
20210514212715 75 45 0.0 2.0 0.00 0.00 0.00 38 1022.9
20210514212215 74 46 0.0 2.0 0.00 0.00 0.00 37 1023.0
20210514211715 74 62 0.0 2.0 0.00 0.00 0.00 39 1022.9
20210514211215 74 62 0.0 2.0 0.00 0.00 0.00 37 1023.0
20210514210714 74 62 0.0 2.0 0.00 0.00 0.00 37 1023.1
20210514210214 74 62 0.0 6.0 0.00 0.00 0.00 35 1023.1
20210514205714 75 62 0.0 6.0 0.00 0.00 0.00 35 1023.2
20210514205214 76 96 0.0 6.0 0.00 0.00 0.00 36 1023.2
20210514204714 76 17 0.0 6.0 0.00 0.00 0.00 38 1023.2
20210514204214 76 17 0.0 6.0 0.00 0.00 0.00 40 1023.3
20210514203714 75 17 0.0 6.0 0.00 0.00 0.00 42 1023.4
20210514203213 75 15 0.0 6.0 0.00 0.00 0.00 42 1023.4
20210514202713 74 15 0.0 6.0 0.00 0.00 0.00 39 1023.3
20210514202213 73 252 0.0 6.0 0.00 0.00 0.00 39 1023.4
20210514201713 73 246 0.0 6.0 0.00 0.00 0.00 39 1023.5
20210514201213 73 257 0.0 6.0 0.00 0.00 0.00 40 1023.5
20210514200713 73 199 0.0 6.0 0.00 0.00 0.00 40 1023.4
20210514200213 74 279 2.0 6.0 0.00 0.00 0.00 37 1023.4
20210514195712 75 273 0.0 6.0 0.00 0.00 0.00 41 1023.3
20210514195212 76 182 2.0 6.0 0.00 0.00 0.00 41 1023.5
20210514194712 76 284 0.0 6.0 0.00 0.00 0.00 44 1023.5
20210514194212 75 288 0.0 6.0 0.00 0.00 0.00 45 1023.5
20210514193712 74 288 0.0 6.0 0.00 0.00 0.00 42 1023.7
20210514193212 74 271 0.0 6.0 0.00 0.00 0.00 37 1023.7
20210514192712 74 273 0.0 6.0 0.00 0.00 0.00 39 1023.7
20210514192211 74 273 0.0 6.0 0.00 0.00 0.00 36 1023.9
20210514191711 74 273 0.0 6.0 0.00 0.00 0.00 40 1023.9
20210514191211 73 272 0.0 6.0 0.00 0.00 0.00 39 1024.1
20210514190711 73 278 0.0 6.0 0.00 0.00 0.00 42 1024.1
20210514190211 73 261 0.0 0.0 0.00 0.00 0.00 43 1024.2
20210514185711 73 292 0.0 0.0 0.00 0.00 0.00 39 1024.2
20210514185211 73 292 0.0 0.0 0.00 0.00 0.00 42 1024.4
20210514184711 72 292 0.0 0.0 0.00 0.00 0.00 43 1024.5
20210514184210 71 292 0.0 0.0 0.00 0.00 0.00 48 1024.5
20210514183710 71 293 0.0 0.0 0.00 0.00 0.00 47 1024.5
20210514183210 72 293 0.0 0.0 0.00 0.00 0.00 47 1024.6
20210514182710 73 293 0.0 0.0 0.00 0.00 0.00 42 1024.5
20210514182210 73 10 0.0 0.0 0.00 0.00 0.00 41 1024.5
20210514181710 72 281 2.0 0.0 0.00 0.00 0.00 41 1024.3
20210514181209 71 265 1.0 0.0 0.00 0.00 0.00 43 1024.4
20210514180709 70 239 1.0 0.0 0.00 0.00 0.00 42 1024.3
20210514180209 69 238 0.0 5.0 0.00 0.00 0.00 47 1024.3
20210514175709 70 238 0.0 5.0 0.00 0.00 0.00 44 1024.5